Location: L�beck
(53.8752°N, 10.6787°E)
Time: 12:31:27
(UTC+01:00)

Envisat - Visible Passes

Search period start: 25 November 2017 00:00
Search period end: 05 December 2017 00:00
Orbit: 764 x 766 km, 98.2° (Epoch: 25 November)

Date Brightness Start Highest point End Pass type
(mag) Time Alt. Az. Time Alt. Az. Time Alt. Az.
25 Nov 4.7 17:47:42 14° NE 17:47:42 14° NE 17:49:35 10° NNE visible
25 Nov 4.6 19:27:55 25° N 19:27:55 25° N 19:29:59 10° N visible
25 Nov 5.9 21:08:07 11° NW 21:08:07 11° NW 21:08:28 10° NW visible
26 Nov 4.5 18:50:50 23° NNE 18:50:50 23° NNE 18:53:01 10° N visible
26 Nov 5.4 20:31:02 17° NNW 20:31:02 17° NNW 20:32:13 10° NNW visible
27 Nov 4.6 18:13:45 18° NNE 18:13:45 18° NNE 18:15:48 10° N visible
27 Nov 4.9 19:53:58 21° NNW 19:53:58 21° NNW 19:55:38 10° NNW visible
28 Nov 4.8 17:36:41 12° NE 17:36:41 12° NE 17:38:04 10° NNE visible
28 Nov 4.6 19:16:53 23° N 19:16:53 23° N 19:18:48 10° N visible
28 Nov 5.8 20:57:06 12° NW 20:57:06 12° NW 20:57:33 10° NNW visible
29 Nov 6.0 07:13:14 10° ENE 07:14:54 11° E 07:16:32 10° E visible
29 Nov 4.6 18:39:47 21° NNE 18:39:47 21° NNE 18:41:46 10° N visible
29 Nov 5.3 20:20:00 17° NNW 20:20:00 17° NNW 20:21:11 10° NNW visible
30 Nov 4.7 18:02:42 16° NNE 18:02:42 16° NNE 18:04:27 10° N visible
30 Nov 4.9 19:42:54 21° NNW 19:42:54 21° NNW 19:44:30 10° NNW visible
01 Dec 4.9 17:25:36 11° NE 17:25:36 11° NE 17:26:18 10° NNE visible
01 Dec 4.7 19:05:48 21° N 19:05:48 21° N 19:07:37 10° N visible
01 Dec 5.7 20:46:01 13° NNW 20:46:01 13° NNW 20:46:34 10° NNW visible
02 Dec 4.6 18:28:42 19° NNE 18:28:42 19° NNE 18:30:31 10° N visible
02 Dec 5.3 20:08:55 17° NNW 20:08:55 17° NNW 20:10:06 10° NNW visible
03 Dec 4.8 17:51:36 14° NNE 17:51:36 14° NNE 17:53:04 10° NNE visible
03 Dec 4.9 19:31:48 20° N 19:31:48 20° N 19:33:21 10° NNW visible
04 Dec 5.8 07:26:41 10° NE 07:29:38 15° E 07:32:33 10° ESE visible
04 Dec 4.7 18:54:42 20° N 18:54:42 20° N 18:56:24 10° N visible
04 Dec 5.6 20:34:54 13° NNW 20:34:54 13° NNW 20:35:33 10° NNW visible
